Location: Majestic Skies Ranch
(34.0000°N, 105.9300°W)
Time: 00:43:55
(UTC-06:00)

ISS - Visible Passes

Search period start: 28 July 2016 00:00
Search period end: 07 August 2016 00:00
Orbit: 401 x 404 km, 51.6° (Epoch: 27 July)

Date Brightness Start Highest point End Pass type
(mag) Time Alt. Az. Time Alt. Az. Time Alt. Az.
28 Jul -2.5 04:14:22 10° NW 04:17:32 50° NE 04:20:42 10° ESE visible
28 Jul -2.6 20:50:51 10° WSW 20:54:03 58° NW 20:57:16 10° NE visible
29 Jul -1.3 05:02:45 15° S 05:02:45 15° S 05:03:31 10° S visible
29 Jul -0.1 21:35:58 10° WNW 21:37:50 14° NNW 21:39:41 10° N visible
30 Jul -0.7 20:41:59 10° W 20:44:42 24° NW 20:47:24 10° NNE visible
01 Aug -0.1 20:34:00 10° NW 20:35:29 12° NNW 20:36:58 10° N visible
